{"data":{"norad_id":59406,"intl_designator":"2024-064J","name":"STARLINK-31391","alt_names":[],"object_type":"PAYLOAD","status":"ACTIVE","operator":null,"country":"US","launch_date":"2024-04-05","launch_site_code":"AFETR","launch_vehicle":null,"mission":null,"orbit_class":"UNKNOWN","rcs_meters":null,"size_class":null,"mass_kg":null,"dimensions":null,"purposes":["comms"],"wikipedia_slug":null,"has_3d_model":false,"image_url":null,"decayed_at":null,"tle_current":{"epoch":"2026-09-21T16:24:28.438272Z","epoch_age_seconds":62930,"freshness":"FRESH","line1":"1 59406U 24064J   26264.68366248 -.00000196  00000+0  24192-5 0  9992","line2":"2 59406  43.0031  29.0289 0001238 245.5006 114.5717 15.27574450139204","mean_motion":15.2757445,"eccentricity":0.0001238,"inclination_deg":43.0031,"raan_deg":29.0289,"arg_perigee_deg":245.5006,"mean_anomaly_deg":114.5717,"bstar":2.4192e-6,"rev_number":13920,"period_min":94.267091204622,"perigee_km":482.21629789048,"apogee_km":483.91513168266,"semimajor_km":6861.2027147866,"source":"CELESTRAK","updated_at":"2026-09-22T09:00:48.914976Z"}}}